Dades meteomassalio
Diari Summary for Juliol 21, 2017 Units:  Metric    English   Both
« Previous Day
Next Day »
Diari Semanal Mensual Anual Personalitzat
  Maxima: Minima: Mijana:
Temperatura: -17.8 °C -8.2 °C -5.3 °C
Rosada: -17.8 °C -10.5 °C -8.6 °C
Humitat: Humidity % 54 % 70 %
Velocitat del vent: 0 km/h 0 km/h 10.9 km/h
Racha vent: 0 km/h - -
Vent:- - SSE
Pressio: 0 hPa 34154.6 hPa -
Pluja: 213.36 mm    
Historical Graphs
 
 
Tabular Data for Juliol 21, 2017
Time Temperature Dew Point Pressure Wind Wind Speed Wind Gust Humidity Rainfall Rate (Hourly) solar Conditions
-17.8 °C -17.8 °C 0 hPa Calm     Humidity % 0 mm SolarRadiationWatts/m^2 W/m2 Conditions
00:02 -3.9 °C -9.3 °C 34235.8 hPa NW 26.9 km/h 26.9 km/h 55 % 0 mm 0.0 W/m2 CLR
00:07 -4.1 °C -9.6 °C 34235.8 hPa NNW 25.9 km/h 25.9 km/h 54 % 0 mm 0.0 W/m2 CLR
00:12 -4.2 °C -9.6 °C 34235.8 hPa NNW 23.8 km/h 23.8 km/h 55 % 0 mm 0.0 W/m2 CLR
00:17 -4.3 °C -9.6 °C 34235.8 hPa NNW 29.8 km/h 29.8 km/h 55 % 0 mm 0.0 W/m2 CLR
00:22 -4.4 °C -9.7 °C 34235.8 hPa NW 12.9 km/h 12.9 km/h 55 % 0 mm 0.0 W/m2 CLR
00:27 -4.4 °C -9.8 °C 34235.8 hPa NW 23.8 km/h 23.8 km/h 55 % 0 mm 0.0 W/m2 CLR
00:32 -4.6 °C -9.7 °C 34246 hPa WNW 15 km/h 15 km/h 56 % 0 mm 0.0 W/m2 CLR
00:37 -4.6 °C -9.8 °C 34246 hPa WNW 23.8 km/h 23.8 km/h 56 % 0 mm 0.0 W/m2 CLR
00:42 -4.7 °C -10.1 °C 34246 hPa NNW 18.2 km/h 18.2 km/h 55 % 0 mm 0.0 W/m2 CLR
00:47 -4.8 °C -9.9 °C 34246 hPa NW 6 km/h 6 km/h 56 % 0 mm 0.0 W/m2 CLR
00:52 -4.9 °C -10.1 °C 34256.2 hPa NW 17.9 km/h 17.9 km/h 56 % 0 mm 0.0 W/m2 CLR
00:57 -4.9 °C -9.9 °C 34246 hPa NW 11.9 km/h 11.9 km/h 57 % 0 mm 0.0 W/m2 CLR
01:02 -4.9 °C -9.9 °C 34256.2 hPa Calm     57 % 0 mm 0.0 W/m2 CLR
01:07 -5.1 °C -10.1 °C 34256.2 hPa Calm     57 % 0 mm 0.0 W/m2 CLR
01:12 -5.1 °C -10.1 °C 34256.2 hPa Calm     57 % 0 mm 0.0 W/m2 CLR
01:17 -5.1 °C -9.9 °C 34256.2 hPa Calm     58 % 0 mm 0.0 W/m2 CLR
01:22 -5.2 °C -9.9 °C 34256.2 hPa Calm     58 % 0 mm 0.0 W/m2 CLR
01:27 -5.2 °C -10 °C 34256.2 hPa Calm     58 % 0 mm 0.0 W/m2 CLR
01:32 -5.2 °C -10.1 °C 34256.2 hPa Calm     58 % 0 mm 0.0 W/m2 CLR
01:37 -5.2 °C -10.1 °C 34256.2 hPa Calm     58 % 0 mm 0.0 W/m2 CLR
01:42 -5.2 °C -10.1 °C 34256.2 hPa Calm     58 % 0 mm 0.0 W/m2 CLR
01:47 -5.3 °C -10.1 °C 34256.2 hPa Calm     58 % 0 mm 0.0 W/m2 CLR
01:52 -5.3 °C -10.1 °C 34256.2 hPa Calm     58 % 0 mm 0.0 W/m2 CLR
01:57 -5.3 °C -10.2 °C 34256.2 hPa Calm     58 % 0 mm 0.0 W/m2 CLR
02:02 -5.4 °C -10.2 °C 34256.2 hPa Calm   1.6 km/h 58 % 0 mm 0.0 W/m2 CLR
02:07 -5.4 °C -10.2 °C 34256.2 hPa Calm     58 % 0 mm 0.0 W/m2 CLR
02:12 -5.4 °C -10.2 °C 34256.2 hPa NW 12.9 km/h 12.9 km/h 58 % 0 mm 0.0 W/m2 CLR
02:17 -5.4 °C -10.1 °C 34256.2 hPa NNW 20.9 km/h 20.9 km/h 59 % 0 mm 0.0 W/m2 CLR
02:22 -5.5 °C -10.2 °C 34246 hPa NW 18.2 km/h 18.2 km/h 59 % 0 mm 0.0 W/m2 CLR
02:27 -5.5 °C -10.2 °C 34246 hPa NW 9 km/h 9 km/h 59 % 0 mm 0.0 W/m2 CLR
02:32 -5.5 °C -10.2 °C 34246 hPa NNW 10.3 km/h 10.3 km/h 59 % 0 mm 0.0 W/m2 CLR
02:37 -5.5 °C -10.2 °C 34246 hPa NW 9 km/h 9 km/h 59 % 0 mm 0.0 W/m2 CLR
02:42 -5.6 °C -10.2 °C 34246 hPa NW 6 km/h   59 % 0 mm 0.0 W/m2 CLR
02:47 -5.6 °C -10.2 °C 34246 hPa Calm   0.5 km/h 59 % 0 mm 0.0 W/m2 CLR
02:53 -5.6 °C -10.2 °C 34256.2 hPa NW 11.9 km/h 11.9 km/h 59 % 0 mm 0.0 W/m2 CLR
02:57 -5.6 °C -10.3 °C 34246 hPa WNW 9 km/h 9 km/h 59 % 0 mm 0.0 W/m2 CLR
03:02 -5.7 °C -10.3 °C 34246 hPa Calm     59 % 0 mm 0.0 W/m2 CLR
03:08 -5.7 °C -10.4 °C 34246 hPa WNW 15 km/h 15 km/h 59 % 0 mm 0.0 W/m2 CLR
03:13 -5.7 °C -10.4 °C 34246 hPa NW 9 km/h 9 km/h 59 % 0 mm 0.0 W/m2 CLR
03:18 -5.8 °C -10.3 °C 34246 hPa WNW 6 km/h 6 km/h 60 % 0 mm 0.0 W/m2 CLR
03:23 -5.8 °C -10.3 °C 34246 hPa Calm     60 % 0 mm 0.0 W/m2 CLR
03:28 -5.9 °C -10.4 °C 34246 hPa Calm     60 % 0 mm 0.0 W/m2 CLR
03:33 -5.9 °C -10.2 °C 34246 hPa Calm     61 % 0 mm 0.0 W/m2 CLR
03:38 -5.9 °C -10.3 °C 34235.8 hPa Calm     61 % 0 mm 0.0 W/m2 CLR
03:43 -6 °C -10.3 °C 34235.8 hPa Calm     61 % 0 mm 0.0 W/m2 CLR
03:48 -6 °C -10.4 °C 34246 hPa Calm     61 % 0 mm 0.0 W/m2 CLR
03:53 -6.1 °C -10.4 °C 34246 hPa WNW 7.7 km/h 7.7 km/h 61 % 0 mm 0.0 W/m2 CLR
03:58 -6.1 °C -10.3 °C 34246 hPa Calm   0.3 km/h 62 % 0 mm 0.0 W/m2 CLR
04:03 -6.2 °C -10.3 °C 34246 hPa Calm     62 % 0 mm 0.0 W/m2 CLR
04:08 -6.2 °C -10.4 °C 34246 hPa Calm     62 % 0 mm 0.0 W/m2 CLR
04:13 -6.2 °C -10.4 °C 34256.2 hPa Calm     62 % 0 mm 0.0 W/m2 CLR
04:18 -6.2 °C -10.4 °C 34246 hPa Calm     62 % 0 mm 0.0 W/m2 CLR
04:23 -6.2 °C -10.4 °C 34246 hPa Calm     62 % 0 mm 0.0 W/m2 CLR
04:28 -6.3 °C -10.4 °C 34235.8 hPa Calm     62 % 0 mm 0.0 W/m2 CLR
04:33 -6.3 °C -10.5 °C 34235.8 hPa Calm     62 % 0 mm 0.0 W/m2 CLR
04:38 -6.3 °C -10.4 °C 34246 hPa Calm     63 % 0 mm 0.0 W/m2 CLR
04:43 -6.4 °C -10.4 °C 34246 hPa Calm     63 % 0 mm 0.0 W/m2 CLR
04:48 -6.5 °C -10.4 °C 34246 hPa Calm     64 % 0 mm 0.0 W/m2 CLR
04:53 -6.6 °C -10.4 °C 34246 hPa Calm     64 % 0 mm 0.0 W/m2 CLR
04:58 -6.6 °C -10.5 °C 34235.8 hPa Calm     64 % 0 mm 0.0 W/m2 CLR
05:03 -6.6 °C -10.4 °C 34235.8 hPa Calm     65 % 0 mm 0.0 W/m2 CLR
05:08 -6.7 °C -10.3 °C 34235.8 hPa Calm     66 % 0 mm 0.0 W/m2 CLR
05:13 -6.8 °C -10.4 °C 34235.8 hPa Calm     66 % 0 mm 0.0 W/m2 CLR
05:18 -6.8 °C -10.3 °C 34235.8 hPa Calm     67 % 0 mm 0.0 W/m2 CLR
05:23 -6.8 °C -10.3 °C 34235.8 hPa Calm     67 % 0 mm 0.0 W/m2 CLR
05:28 -6.9 °C -10.4 °C 34235.8 hPa Calm     67 % 0 mm 0.0 W/m2 CLR
05:33 -6.9 °C -10.3 °C 34235.8 hPa Calm     68 % 0 mm 0.0 W/m2 CLR
05:38 -7 °C -10.3 °C 34246 hPa Calm     68 % 0 mm 0.0 W/m2 CLR
05:43 -7 °C -10.4 °C 34235.8 hPa Calm     68 % 0 mm 0.0 W/m2 CLR
05:48 -7 °C -10.4 °C 34235.8 hPa Calm     68 % 0 mm 0.0 W/m2 CLR
05:53 -7.1 °C -10.4 °C 34222.3 hPa Calm     68 % 0 mm 0.0 W/m2 CLR
05:58 -7.1 °C -10.4 °C 34222.3 hPa Calm     68 % 0 mm 0.0 W/m2 CLR
06:03 -7.1 °C -10.3 °C 34222.3 hPa Calm     69 % 0 mm 0.0 W/m2 CLR
06:08 -7.1 °C -10.2 °C 34235.8 hPa Calm     70 % 0 mm 0.0 W/m2 CLR
06:13 -7.1 °C -10.3 °C 34235.8 hPa Calm     69 % 0 mm 0.0 W/m2 CLR
06:18 -7.1 °C -10.3 °C 34235.8 hPa Calm     69 % 0 mm 0.0 W/m2 CLR
06:23 -7.1 °C -10.4 °C 34235.8 hPa Calm     68 % 0 mm 0.0 W/m2 CLR
06:28 -7.1 °C -10.4 °C 34235.8 hPa Calm     68 % 0 mm 0.0 W/m2 CLR
06:33 -7.1 °C -10.5 °C 34222.3 hPa Calm     68 % 0 mm 0.0 W/m2 CLR
06:38 -7.2 °C -10.4 °C 34222.3 hPa Calm     69 % 0 mm 0.0 W/m2 OVC
06:43 -7.2 °C -10.4 °C 34235.8 hPa Calm     69 % 0 mm 0.0 W/m2 OVC
06:48 -7.2 °C -10.4 °C 34235.8 hPa Calm     69 % 0 mm 0.0 W/m2 OVC
06:53 -7.2 °C -10.4 °C 34235.8 hPa Calm     69 % 0 mm 11.0 W/m2 BKN
06:58 -7.2 °C -10.4 °C 34235.8 hPa Calm     69 % 0 mm 12.0 W/m2 BKN
07:03 -7.2 °C -10.4 °C 34246 hPa WSW 3.1 km/h 3.1 km/h 69 % 0 mm 14.0 W/m2 BKN
07:08 -7.2 °C -10.4 °C 34256.2 hPa Calm     69 % 0 mm 12.0 W/m2 BKN
07:13 -7.2 °C -10.3 °C 34246 hPa Calm     70 % 0 mm 11.0 W/m2 BKN
07:18 -7.2 °C -10.3 °C 34246 hPa Calm     70 % 0 mm 5.0 W/m2 OVC
07:23 -7.2 °C -10.3 °C 34246 hPa Calm     70 % 0 mm 11.0 W/m2 BKN
07:28 -7.2 °C -10.3 °C 34235.8 hPa Calm     70 % 0 mm 16.0 W/m2 BKN
07:33 -7.2 °C -10.2 °C 34235.8 hPa Calm     71 % 0 mm 11.0 W/m2 BKN
07:38 -7.2 °C -10.1 °C 34235.8 hPa Calm     72 % 0 mm 11.0 W/m2 BKN
07:43 -7.3 °C -10.1 °C 34256.2 hPa West 9 km/h 9 km/h 72 % 0 mm 12.0 W/m2 BKN
07:48 -7.3 °C -10.1 °C 34256.2 hPa Calm     73 % 0 mm 12.0 W/m2 BKN
07:53 -7.3 °C -9.8 °C 34269.7 hPa Calm     75 % 0 mm 9.0 W/m2 BKN
07:58 -7.4 °C -9.9 °C 34269.7 hPa Calm     75 % 0 mm 5.0 W/m2 BKN
08:03 -7.4 °C -9.8 °C 34256.2 hPa Calm     76 % 7.62 mm 9.0 W/m2 RA
08:08 -7.4 °C -9.8 °C 34246 hPa Calm     77 % 20.32 mm 12.0 W/m2 RA
08:13 -7.6 °C -9.6 °C 34256.2 hPa Calm     79 % 20.32 mm 18.0 W/m2 BKN
08:18 -7.6 °C -9.3 °C 34269.7 hPa Calm     82 % 20.32 mm 25.0 W/m2 BKN
08:23 -7.7 °C -9.3 °C 34269.7 hPa Calm     83 % 20.32 mm 26.0 W/m2 BKN
08:28 -7.8 °C -9.4 °C 34269.7 hPa Calm     83 % 20.32 mm 42.0 W/m2 BKN
08:33 -7.8 °C -9.3 °C 34256.2 hPa North 9 km/h 9 km/h 84 % 25.4 mm 60.0 W/m2 RA
08:38 -7.8 °C -9.2 °C 34256.2 hPa Calm     85 % 33.02 mm 91.0 W/m2 RA
08:43 -7.8 °C -9.2 °C 34256.2 hPa Calm     85 % 33.02 mm 183.0 W/m2 FEW
08:48 -7.8 °C -9.2 °C 34256.2 hPa ENE 2.6 km/h 2.6 km/h 85 % 33.02 mm 67.0 W/m2 CLR
08:53 -7.8 °C -9.2 °C 34235.8 hPa East 12.9 km/h 12.9 km/h 85 % 33.02 mm 30.0 W/m2 FEW
08:58 -7.8 °C -9.1 °C 34235.8 hPa ESE 9 km/h 9 km/h 86 % 38.1 mm 21.0 W/m2 RA
09:03 -7.8 °C -9.2 °C 34235.8 hPa SE 6 km/h 6 km/h 86 % 33.02 mm 21.0 W/m2 BKN
09:08 -7.9 °C -9.2 °C 34235.8 hPa SE 10.3 km/h 10.3 km/h 86 % 12.7 mm 18.0 W/m2 BKN
09:09 -7.9 °C -9.2 °C 34235.8 hPa SE 11.9 km/h 11.9 km/h 86 % 20.32 mm 18.0 W/m2 RA
09:14 -7.9 °C -9.3 °C 34222.3 hPa SE 20.9 km/h 20.9 km/h 86 % 38.1 mm 25.0 W/m2 RA
09:19 -8 °C -9.2 °C 34222.3 hPa SE 15 km/h 15 km/h 87 % 50.8 mm 25.0 W/m2 RA
09:24 -8.1 °C -9.3 °C 34246 hPa West 9 km/h 9 km/h 87 % 50.8 mm 14.0 W/m2 BKN
09:29 -8.1 °C -9.3 °C 34246 hPa NW 11.9 km/h 11.9 km/h 87 % 104.14 mm 12.0 W/m2 RA
09:34 -8.1 °C -9.2 °C 34246 hPa Calm     88 % 180.34 mm 18.0 W/m2 RA
09:39 -8.2 °C -9.2 °C 34246 hPa North 17.9 km/h 17.9 km/h 89 % 180.34 mm 42.0 W/m2 RA
09:44 -8.2 °C -9.2 °C 34246 hPa Calm     89 % 180.34 mm 90.0 W/m2 BKN
09:49 -8.2 °C -9.1 °C 34246 hPa Calm     90 % 180.34 mm 104.0 W/m2 FEW
09:54 -8.2 °C -9.1 °C 34256.2 hPa Calm     90 % 180.34 mm 95.0 W/m2 CLR
09:59 -8.2 °C -9.2 °C 34256.2 hPa Calm     89 % 180.34 mm 77.0 W/m2 CLR
10:04 -8.2 °C -9.2 °C 34256.2 hPa Calm     89 % 180.34 mm 63.0 W/m2 FEW
10:09 -8.1 °C -9.1 °C 34256.2 hPa Calm     89 % 175.26 mm 74.0 W/m2 FEW
10:14 -8.1 °C -9.1 °C 34256.2 hPa Calm     89 % 154.94 mm 113.0 W/m2 FEW
10:19 -8.1 °C -9.1 °C 34246 hPa Calm     89 % 142.24 mm 142.0 W/m2 CLR
10:24 -8 °C -9.1 °C 34256.2 hPa Calm     89 % 142.24 mm 181.0 W/m2 CLR
10:29 -8 °C -9.1 °C 34256.2 hPa Calm     88 % 91.44 mm 155.0 W/m2 CLR
10:34 -8 °C -9.1 °C 34256.2 hPa Calm     88 % 7.62 mm 158.0 W/m2 CLR
10:39 -7.9 °C -9.1 °C 34256.2 hPa North 9 km/h 9 km/h 88 % 0 mm 123.0 W/m2 CLR
10:44 -7.9 °C -9.1 °C 34256.2 hPa Calm     88 % 0 mm 120.0 W/m2 CLR
10:49 -7.9 °C -9.1 °C 34256.2 hPa Calm     88 % 0 mm 155.0 W/m2 CLR
10:54 -7.9 °C -9.1 °C 34246 hPa Calm     88 % 0 mm 230.0 W/m2 CLR
10:59 -7.9 °C -9 °C 34246 hPa Calm     88 % 0 mm 374.0 W/m2 CLR
11:04 -7.8 °C -8.9 °C 34256.2 hPa Calm     88 % 0 mm 278.0 W/m2 CLR
11:09 -7.7 °C -9.1 °C 34256.2 hPa Calm     85 % 0 mm 206.0 W/m2 CLR
11:14 -7.6 °C -8.9 °C 34256.2 hPa Calm     86 % 0 mm 141.0 W/m2 CLR
11:19 -7.6 °C -9 °C 34256.2 hPa Calm     85 % 0 mm 197.0 W/m2 CLR
11:24 -7.5 °C -8.8 °C 34256.2 hPa Calm     86 % 0 mm 589.0 W/m2 CLR
11:29 -7.4 °C -8.8 °C 34269.7 hPa Calm     86 % 0 mm 287.0 W/m2 CLR
11:30 -7.4 °C -8.8 °C 34269.7 hPa Calm     86 % 0 mm 376.0 W/m2 CLR
11:35 -7.4 °C -8.8 °C 34256.2 hPa Calm     85 % 0 mm 295.0 W/m2 CLR
11:40 -7.4 °C -8.7 °C 34269.7 hPa Calm     86 % 0 mm 199.0 W/m2 CLR
11:45 -7.3 °C -8.7 °C 34256.2 hPa Calm     86 % 0 mm 422.0 W/m2 CLR
11:50 -7.2 °C -8.4 °C 34256.2 hPa Calm     87 % 0 mm 807.0 W/m2 CLR
11:55 -7 °C -8.4 °C 34256.2 hPa Calm     85 % 0 mm 884.0 W/m2 CLR
12:00 -6.7 °C -8.1 °C 34256.2 hPa Calm     86 % 0 mm 807.0 W/m2 CLR
12:05 -6.6 °C -8.1 °C 34256.2 hPa Calm     85 % 0 mm 853.0 W/m2 CLR
12:11 -6.5 °C -8.1 °C 34256.2 hPa Calm     84 % 0 mm 455.0 W/m2 CLR
12:16 -6.3 °C -7.9 °C 34256.2 hPa Calm     84 % 0 mm 455.0 W/m2 CLR
12:21 -6.2 °C -7.9 °C 34256.2 hPa ENE 9 km/h 9 km/h 83 % 0 mm 513.0 W/m2 CLR
12:26 -6.2 °C -8 °C 34246 hPa Calm     81 % 0 mm 635.0 W/m2 CLR
12:31 -6 °C -7.8 °C 34246 hPa Calm     82 % 0 mm 568.0 W/m2 CLR
12:36 -5.9 °C -7.7 °C 34246 hPa Calm     82 % 0 mm 1021.0 W/m2 CLR
12:41 -5.8 °C -7.7 °C 34246 hPa NE 11.9 km/h 11.9 km/h 81 % 0 mm 673.0 W/m2 CLR
12:46 -5.7 °C -7.4 °C 34246 hPa NE 15.6 km/h 15.6 km/h 82 % 0 mm 485.0 W/m2 CLR
12:51 -5.6 °C -7.6 °C 34246 hPa ENE 11.9 km/h 11.9 km/h 80 % 0 mm 577.0 W/m2 CLR
12:56 -5.6 °C -7.5 °C 34235.8 hPa NNE 11.9 km/h 11.9 km/h 81 % 0 mm 543.0 W/m2 CLR
13:01 -5.5 °C -7.4 °C 34235.8 hPa ENE 6 km/h 6 km/h 81 % 0 mm 552.0 W/m2 CLR
13:06 -5.4 °C -7.4 °C 34235.8 hPa NNE 11.9 km/h 11.9 km/h 80 % 0 mm 388.0 W/m2 CLR
13:11 -5.3 °C -7.3 °C 34235.8 hPa NE 17.9 km/h 17.9 km/h 80 % 0 mm 469.0 W/m2 CLR
13:16 -5.1 °C -7.1 °C 34235.8 hPa NE 3.1 km/h   81 % 0 mm 689.0 W/m2 CLR
13:21 -4.9 °C -7.1 °C 34235.8 hPa ENE 11.9 km/h 11.9 km/h 79 % 0 mm 1023.0 W/m2 CLR
13:26 -4.7 °C -6.8 °C 34222.3 hPa ENE 23.8 km/h 23.8 km/h 79 % 0 mm 1099.0 W/m2 CLR
13:31 -4.5 °C -6.7 °C 34222.3 hPa NNE 20.9 km/h 20.9 km/h 78 % 0 mm 1009.0 W/m2 CLR
13:36 -4.4 °C -6.7 °C 34222.3 hPa NE 26.9 km/h 26.9 km/h 78 % 0 mm 962.0 W/m2 CLR
13:41 -4.4 °C -6.8 °C 34222.3 hPa NE 25.9 km/h 25.9 km/h 77 % 0 mm 912.0 W/m2 CLR
13:46 -4.3 °C -6.8 °C 34222.3 hPa ENE 26.9 km/h 26.9 km/h 76 % 0 mm 895.0 W/m2 CLR
13:51 -4.1 °C -6.8 °C 34212.1 hPa ENE 26.9 km/h 26.9 km/h 75 % 0 mm 909.0 W/m2 CLR
13:56 -4 °C -6.8 °C 34212.1 hPa ENE 26.9 km/h 26.9 km/h 73 % 0 mm 904.0 W/m2 CLR
14:01 -3.8 °C -6.8 °C 34212.1 hPa East 17.9 km/h 17.9 km/h 72 % 0 mm 911.0 W/m2 CLR
14:06 -3.7 °C -6.7 °C 34198.6 hPa East 20.9 km/h 20.9 km/h 72 % 0 mm 930.0 W/m2 CLR
14:11 -3.5 °C -6.6 °C 34198.6 hPa East 32.8 km/h 32.8 km/h 72 % 0 mm 969.0 W/m2 CLR
14:16 -3.4 °C -6.6 °C 34188.4 hPa ESE 29.8 km/h 29.8 km/h 71 % 0 mm 997.0 W/m2 CLR
14:21 -3.2 °C -6.4 °C 34198.6 hPa ESE 11.9 km/h 11.9 km/h 71 % 0 mm 868.0 W/m2 CLR
14:26 -3.1 °C -6.6 °C 34198.6 hPa ENE 26.9 km/h 26.9 km/h 69 % 0 mm 705.0 W/m2 CLR
14:31 -3.2 °C -6.3 °C 34188.4 hPa ENE 28.5 km/h 28.5 km/h 71 % 0 mm 497.0 W/m2 CLR
14:36 -3.2 °C -6.6 °C 34188.4 hPa East 23.8 km/h 23.8 km/h 69 % 0 mm 318.0 W/m2 CLR
14:41 -3.2 °C -6.6 °C 34198.6 hPa ENE 29.8 km/h 29.8 km/h 69 % 0 mm 237.0 W/m2 CLR
14:46 -3.2 °C -6.7 °C 34188.4 hPa East 26.9 km/h 26.9 km/h 68 % 0 mm 183.0 W/m2 CLR
14:51 -3.2 °C -6.7 °C 34178.3 hPa East 28.5 km/h 28.5 km/h 68 % 0 mm 148.0 W/m2 CLR
14:56 -3.2 °C -6.9 °C 34188.4 hPa East 23.8 km/h 23.8 km/h 67 % 0 mm 114.0 W/m2 CLR
15:01 -3.2 °C -6.8 °C 34198.6 hPa ESE 17.9 km/h 17.9 km/h 68 % 0 mm 93.0 W/m2 CLR
15:06 -3.2 °C -7.1 °C 34198.6 hPa ESE 23.8 km/h 23.8 km/h 66 % 0 mm 74.0 W/m2 CLR
15:12 -3.3 °C -6.9 °C 34178.3 hPa East 10.3 km/h 10.3 km/h 67 % 0 mm 63.0 W/m2 FEW
15:17 -3.3 °C -7 °C 34178.3 hPa ESE 20.9 km/h 20.9 km/h 67 % 0 mm 58.0 W/m2 FEW
15:22 -3.4 °C -7.2 °C 34198.6 hPa East 26.9 km/h 26.9 km/h 66 % 0 mm 54.0 W/m2 SCT
15:27 -3.4 °C -7.2 °C 34198.6 hPa ESE 29.8 km/h 29.8 km/h 66 % 0 mm 46.0 W/m2 SCT
15:32 -3.4 °C -7.2 °C 34188.4 hPa ESE 31.1 km/h 31.1 km/h 66 % 0 mm 35.0 W/m2 SCT
15:37 -3.4 °C -7.1 °C 34188.4 hPa East 17.9 km/h 17.9 km/h 67 % 0 mm 30.0 W/m2 BKN
15:42 -3.5 °C -7.2 °C 34188.4 hPa ESE 20.9 km/h 20.9 km/h 67 % 0 mm 30.0 W/m2 BKN
15:47 -3.6 °C -7.1 °C 34188.4 hPa SE 20.8 km/h 20.8 km/h 68 % 0 mm 33.0 W/m2 BKN
15:52 -3.6 °C -7.1 °C 34188.4 hPa ESE 15 km/h 15 km/h 68 % 0 mm 42.0 W/m2 BKN
15:57 -3.7 °C -7.2 °C 34188.4 hPa ESE 25.9 km/h 25.9 km/h 68 % 0 mm 56.0 W/m2 BKN
16:02 -3.7 °C -7.2 °C 34188.4 hPa ESE 29.8 km/h 29.8 km/h 68 % 0 mm 72.0 W/m2 SCT
16:07 -3.8 °C -7.3 °C 34188.4 hPa ESE 35.7 km/h 35.7 km/h 68 % 0 mm 105.0 W/m2 FEW
16:12 -3.8 °C -7.2 °C 34188.4 hPa ESE 29.8 km/h 29.8 km/h 69 % 0 mm 163.0 W/m2 CLR
16:17 -3.8 °C -7.3 °C 34188.4 hPa ESE 29.8 km/h 29.8 km/h 69 % 0 mm 276.0 W/m2 CLR
16:22 -3.7 °C -7.1 °C 34188.4 hPa ESE 29.8 km/h 29.8 km/h 69 % 0 mm 874.0 W/m2 CLR
16:27 -3.4 °C -6.8 °C 34188.4 hPa ESE 23.8 km/h 23.8 km/h 69 % 0 mm 733.0 W/m2 CLR
16:32 -3.3 °C -7 °C 34188.4 hPa SE 29.8 km/h 29.8 km/h 67 % 0 mm 582.0 W/m2 CLR
16:37 -3.3 °C -7.1 °C 34178.3 hPa SSE 38.8 km/h 38.8 km/h 66 % 0 mm 673.0 W/m2 CLR
16:42 -3.3 °C -7.1 °C 34188.4 hPa SSE 35.7 km/h 35.7 km/h 66 % 0 mm 842.0 W/m2 CLR
16:47 -3.2 °C -6.8 °C 34188.4 hPa SSE 41.7 km/h 41.7 km/h 67 % 0 mm 782.0 W/m2 CLR
16:52 -3.3 °C -6.9 °C 34178.3 hPa SE 29.8 km/h 29.8 km/h 67 % 0 mm 731.0 W/m2 CLR
16:57 -3.3 °C -7.2 °C 34178.3 hPa SE 23.8 km/h 23.8 km/h 65 % 0 mm 705.0 W/m2 CLR
17:02 -3.2 °C -7.1 °C 34178.3 hPa SE 44.7 km/h 44.7 km/h 65 % 0 mm 691.0 W/m2 CLR
17:07 -3.1 °C -6.9 °C 34188.4 hPa SE 29.8 km/h 29.8 km/h 66 % 0 mm 679.0 W/m2 CLR
17:12 -2.9 °C -6.9 °C 34188.4 hPa SSE 35.7 km/h 35.7 km/h 65 % 0 mm 664.0 W/m2 CLR
17:17 -3 °C -7.1 °C 34178.3 hPa ESE 38.8 km/h 38.8 km/h 64 % 0 mm 656.0 W/m2 CLR
17:22 -3.1 °C -7.2 °C 34178.3 hPa SE 26.9 km/h 26.9 km/h 64 % 0 mm 635.0 W/m2 CLR
17:27 -3 °C -7.1 °C 34178.3 hPa South 20.9 km/h 20.9 km/h 64 % 0 mm 622.0 W/m2 CLR
17:32 -2.9 °C -7.1 °C 34178.3 hPa South 28.5 km/h 28.5 km/h 63 % 0 mm 603.0 W/m2 CLR
17:37 -2.8 °C -7.1 °C 34178.3 hPa ESE 41.7 km/h 41.7 km/h 63 % 0 mm 585.0 W/m2 CLR
17:42 -2.7 °C -7.1 °C 34178.3 hPa SE 54.4 km/h 54.4 km/h 62 % 0 mm 568.0 W/m2 CLR
17:47 -2.7 °C -7.1 °C 34178.3 hPa South 29.8 km/h 29.8 km/h 62 % 0 mm 563.0 W/m2 CLR
17:52 -2.7 °C -7.1 °C 34164.7 hPa SE 47.6 km/h 47.6 km/h 62 % 0 mm 547.0 W/m2 CLR
17:57 -2.8 °C -7.2 °C 34164.7 hPa ESE 29.8 km/h 29.8 km/h 62 % 0 mm 534.0 W/m2 CLR
18:02 -2.7 °C -7.1 °C 34164.7 hPa South 23.8 km/h 23.8 km/h 62 % 0 mm 526.0 W/m2 CLR
18:07 -2.8 °C -7.2 °C 34164.7 hPa SSE 25.9 km/h 25.9 km/h 62 % 0 mm 513.0 W/m2 CLR
18:12 -2.8 °C -7.2 °C 34164.7 hPa SE 15 km/h 15 km/h 62 % 0 mm 499.0 W/m2 CLR
18:17 -2.7 °C -7.1 °C 34164.7 hPa SE 20.9 km/h 20.9 km/h 62 % 0 mm 482.0 W/m2 CLR
18:22 -2.7 °C -7.2 °C 34154.6 hPa SE 20.9 km/h 20.9 km/h 61 % 0 mm 462.0 W/m2 CLR
18:27 -2.7 °C -7.2 °C 34154.6 hPa SE 26.9 km/h 26.9 km/h 61 % 0 mm 452.0 W/m2 CLR
18:32 -2.7 °C -7.2 °C 34154.6 hPa ESE 26.9 km/h 26.9 km/h 61 % 0 mm 436.0 W/m2 CLR
18:37 -2.6 °C -7.1 °C 34154.6 hPa SE 26.9 km/h 26.9 km/h 61 % 0 mm 420.0 W/m2 CLR
18:42 -2.5 °C -7.2 °C 34154.6 hPa SE 26.9 km/h 26.9 km/h 60 % 0 mm 406.0 W/m2 CLR
18:43 -2.5 °C -7.2 °C 34154.6 hPa SE 29.8 km/h 29.8 km/h 60 % 0 mm 401.0 W/m2 CLR
18:48 -2.6 °C -7.3 °C 34154.6 hPa SSE 29.8 km/h 29.8 km/h 60 % 0 mm 388.0 W/m2 CLR
18:53 -2.6 °C -7.3 °C 34164.7 hPa SE 20.9 km/h 20.9 km/h 60 % 0 mm 373.0 W/m2 CLR
18:58 -2.4 °C -7.3 °C 34164.7 hPa SE 23.8 km/h 23.8 km/h 59 % 0 mm 360.0 W/m2 CLR
19:03 -2.4 °C -7.3 °C 34154.6 hPa South 23.8 km/h 23.8 km/h 59 % 0 mm 348.0 W/m2 CLR
19:08 -2.4 °C -7.3 °C 34154.6 hPa ESE 23.8 km/h 23.8 km/h 59 % 0 mm 320.0 W/m2 CLR
19:13 -2.4 °C -7.3 °C 34154.6 hPa Calm     59 % 0 mm 313.0 W/m2 CLR
19:18 -2.3 °C -7.2 °C 34164.7 hPa SSE 15 km/h 15 km/h 59 % 0 mm 301.0 W/m2 CLR
19:23 -2.3 °C -7.2 °C 34164.7 hPa SE 15 km/h 15 km/h 59 % 0 mm 288.0 W/m2 CLR
19:28 -2.3 °C -7.3 °C 34164.7 hPa SE 26.9 km/h 26.9 km/h 58 % 0 mm 267.0 W/m2 CLR
19:33 -2.3 °C -7.3 °C 34164.7 hPa SW 23.8 km/h 23.8 km/h 58 % 0 mm 260.0 W/m2 CLR
19:38 -2.3 °C -7.4 °C 34164.7 hPa SSW 23.8 km/h 23.8 km/h 57 % 0 mm 257.0 W/m2 CLR
19:43 -2.2 °C -7.3 °C 34164.7 hPa South 15.6 km/h 15.6 km/h 58 % 0 mm 246.0 W/m2 CLR
19:48 -2.3 °C -7.3 °C 34164.7 hPa South 9 km/h 9 km/h 58 % 0 mm 209.0 W/m2 CLR
19:53 -2.3 °C -7.3 °C 34164.7 hPa SSE 26.9 km/h 26.9 km/h 58 % 0 mm 186.0 W/m2 CLR
19:58 -2.4 °C -7.3 °C 34164.7 hPa Calm     59 % 0 mm 172.0 W/m2 CLR
20:03 -2.4 °C -7.2 °C 34164.7 hPa Calm     60 % 0 mm 155.0 W/m2 CLR
20:08 -2.5 °C -7.1 °C 34164.7 hPa SE 20.9 km/h 20.9 km/h 61 % 0 mm 141.0 W/m2 CLR
20:13 -2.6 °C -7.2 °C 34164.7 hPa SE 29.8 km/h 29.8 km/h 61 % 0 mm 123.0 W/m2 CLR
20:18 -2.7 °C -7.1 °C 34164.7 hPa SE 23.8 km/h 23.8 km/h 62 % 0 mm 107.0 W/m2 CLR
20:23 -2.9 °C -7.1 °C 34164.7 hPa ESE 17.9 km/h 17.9 km/h 63 % 0 mm 93.0 W/m2 CLR
20:28 -3 °C -7.1 °C 34178.3 hPa SE 9 km/h 9 km/h 64 % 0 mm 81.0 W/m2 FEW
20:33 -3.1 °C -7.2 °C 34164.7 hPa SE 20.9 km/h 20.9 km/h 64 % 0 mm 67.0 W/m2 FEW
20:38 -3.2 °C -7.2 °C 34164.7 hPa SE 23.8 km/h 23.8 km/h 64 % 0 mm 56.0 W/m2 SCT
20:43 -3.2 °C -7.2 °C 34164.7 hPa SE 17.9 km/h 17.9 km/h 65 % 0 mm 44.0 W/m2 BKN
20:52 -3.4 °C -7.3 °C 34178.3 hPa ESE 26.9 km/h 26.9 km/h 65 % 0 mm 32.0 W/m2 BKN
20:57 -3.4 °C -7.2 °C 34178.3 hPa SE 20.9 km/h 20.9 km/h 66 % 0 mm 25.0 W/m2 BKN
21:02 -3.5 °C -7.2 °C 34178.3 hPa SE 20.9 km/h 20.9 km/h 67 % 0 mm 19.0 W/m2 BKN
21:07 -3.6 °C -7.3 °C 34178.3 hPa SSE 11.9 km/h 11.9 km/h 67 % 0 mm 16.0 W/m2 BKN
21:12 -3.7 °C -7.3 °C 34178.3 hPa SE 23.8 km/h 23.8 km/h 67 % 0 mm 12.0 W/m2 BKN
21:17 -3.7 °C -7.4 °C 34178.3 hPa SE 20.9 km/h 20.9 km/h 67 % 0 mm 9.0 W/m2 BKN
21:22 -3.8 °C -7.3 °C 34178.3 hPa SE 23.8 km/h 23.8 km/h 68 % 0 mm 5.0 W/m2 OVC
21:27 -3.8 °C -7.4 °C 34178.3 hPa SE 17.9 km/h 17.9 km/h 68 % 0 mm 0.0 W/m2 OVC
21:32 -3.9 °C -7.3 °C 34188.4 hPa SE 3.1 km/h   69 % 0 mm 0.0 W/m2 OVC
21:37 -4 °C -7.3 °C 34188.4 hPa SSE 6 km/h 6 km/h 69 % 0 mm 0.0 W/m2 CLR
21:42 -4.1 °C -7.4 °C 34188.4 hPa Calm     69 % 0 mm 0.0 W/m2 CLR
21:47 -4.1 °C -7.3 °C 34198.6 hPa Calm     70 % 0 mm 0.0 W/m2 CLR
21:48 -4.1 °C -7.3 °C 34198.6 hPa Calm     70 % 0 mm 0.0 W/m2 CLR
21:53 -4.1 °C -7.4 °C 34198.6 hPa Calm     70 % 0 mm 0.0 W/m2 CLR
21:58 -4.2 °C -7.3 °C 34198.6 hPa Calm     71 % 0 mm 0.0 W/m2 CLR
22:03 -4.3 °C -7.3 °C 34198.6 hPa Calm     72 % 0 mm 0.0 W/m2 CLR
22:08 -4.3 °C -7.3 °C 34198.6 hPa Calm     72 % 0 mm 0.0 W/m2 CLR
22:10 -4.3 °C -7.3 °C 34212.1 hPa Calm     72 % 0 mm 0.0 W/m2 CLR
22:15 -4.4 °C -7.4 °C 34212.1 hPa Calm     72 % 0 mm 0.0 W/m2 CLR
22:20 -4.4 °C -7.4 °C 34212.1 hPa Calm     72 % 0 mm 0.0 W/m2 CLR
22:25 -4.4 °C -7.4 °C 34222.3 hPa Calm     72 % 0 mm 0.0 W/m2 CLR
22:30 -4.6 °C -7.5 °C 34212.1 hPa Calm     72 % 0 mm 0.0 W/m2 CLR
22:35 -4.6 °C -7.4 °C 34222.3 hPa Calm     73 % 0 mm 0.0 W/m2 CLR
22:40 -4.7 °C -7.4 °C 34222.3 hPa Calm     74 % 0 mm 0.0 W/m2 CLR
22:45 -4.7 °C -7.4 °C 34222.3 hPa Calm     74 % 0 mm 0.0 W/m2 CLR
22:50 -4.8 °C -7.5 °C 34212.1 hPa SSE 11.9 km/h 11.9 km/h 74 % 0 mm 0.0 W/m2 CLR
22:55 -4.8 °C -7.6 °C 34212.1 hPa SSE 15 km/h 15 km/h 73 % 0 mm 0.0 W/m2 CLR
23:00 -4.8 °C -7.6 °C 34212.1 hPa SSE 15.6 km/h 15.6 km/h 73 % 0 mm 0.0 W/m2 CLR
23:05 -4.8 °C -7.7 °C 34212.1 hPa Calm     73 % 0 mm 0.0 W/m2 CLR
23:10 -4.8 °C -7.6 °C 34212.1 hPa Calm     74 % 0 mm 0.0 W/m2 CLR
23:15 -4.9 °C -7.6 °C 34212.1 hPa Calm     74 % 0 mm 0.0 W/m2 CLR
23:20 -4.9 °C -7.6 °C 34212.1 hPa Calm     75 % 0 mm 0.0 W/m2 CLR
23:25 -5 °C -7.6 °C 34212.1 hPa Calm     75 % 0 mm 0.0 W/m2 CLR
23:30 -5.1 °C -7.6 °C 34212.1 hPa ESE 5.1 km/h 5.1 km/h 76 % 0 mm 0.0 W/m2 CLR
23:35 -5.2 °C -7.5 °C 34212.1 hPa SE 17.9 km/h 17.9 km/h 77 % 0 mm 0.0 W/m2 CLR
23:40 -5.2 °C -7.5 °C 34212.1 hPa SSE 11.9 km/h 11.9 km/h 77 % 0 mm 0.0 W/m2 CLR
23:45 -5.2 °C -7.6 °C 34212.1 hPa SSE 9 km/h 9 km/h 77 % 0 mm 0.0 W/m2 CLR
23:50 -5.2 °C -7.6 °C 34212.1 hPa SSE 10.3 km/h 10.3 km/h 77 % 0 mm 0.0 W/m2 CLR
23:55 -5.2 °C -7.5 °C 34222.3 hPa SE 20.9 km/h 20.9 km/h 78 % 0 mm 0.0 W/m2 CLR
Lo Temps de Massalio
Compliments of Weather Underground - 1.25 mb